KAY17Y LIRP-LICR

Flight info

Callsign KAY17Y
Flight time 1h 11m
Altitude 19000
Route DOCME M729 GILIO/N0449F370 DCT MEDAL DCT ELVIN DCT RIFFI DCT PIGER/N0393F180 L869 PEROS
Aircraft A319/M-SDE3FGHIRWY/LB1

Departure

Time 2026-05-05 16:57
Airport Pisa International Airport (LIRP)

Arrival

Time 2026-05-05 18:08
Airport Reggio Calabria Airport (LICR)
Time Latitude Longitude Altitude Speed Heading
2026-05-05 15:57 43.69638 10.39891 15 ft 0 kts 98°
2026-05-05 16:52 43.69636 10.39909 15 ft 3 kts 98°
2026-05-05 16:53 43.69651 10.39946 17 ft 7 kts 10°
2026-05-05 16:53 43.69686 10.39998 15 ft 11 kts 99°
2026-05-05 16:53 43.69652 10.40054 15 ft 10 kts 175°
2026-05-05 16:53 43.69567 10.40070 16 ft 15 kts 172°
2026-05-05 16:54 43.69525 10.40078 16 ft 0 kts 172°
2026-05-05 16:54 43.69524 10.40079 16 ft 1 kts 172°
2026-05-05 16:54 43.69503 10.40082 17 ft 5 kts 172°
2026-05-05 16:54 43.69464 10.40090 18 ft 6 kts 172°
2026-05-05 16:55 43.69425 10.40097 21 ft 5 kts 172°
2026-05-05 16:55 43.69380 10.40116 23 ft 10 kts 140°
2026-05-05 16:55 43.69315 10.40229 20 ft 17 kts 127°
2026-05-05 16:55 43.69276 10.40302 20 ft 8 kts 126°
2026-05-05 16:56 43.69225 10.40302 20 ft 10 kts 221°
2026-05-05 16:56 43.69149 10.40223 21 ft 28 kts 217°
2026-05-05 16:56 43.68712 10.39772 18 ft 125 kts 217°
2026-05-05 16:56 43.67898 10.38941 592 ft 149 kts 217°
2026-05-05 16:57 43.67053 10.38078 1583 ft 152 kts 217°
2026-05-05 16:57 43.66201 10.37195 2628 ft 152 kts 218°
2026-05-05 16:57 43.65351 10.36310 3553 ft 161 kts 218°
2026-05-05 16:57 43.64399 10.35322 4194 ft 183 kts 218°
2026-05-05 16:58 43.63352 10.34146 4919 ft 204 kts 229°
2026-05-05 16:58 43.62879 10.32306 5918 ft 217 kts 270°
2026-05-05 16:58 43.63412 10.30341 7090 ft 223 kts 298°
2026-05-05 16:58 43.64321 10.28585 8273 ft 229 kts 303°
2026-05-05 16:59 43.65313 10.26838 9438 ft 233 kts 304°
2026-05-05 16:59 43.66338 10.25076 10553 ft 238 kts 306°
2026-05-05 16:59 43.67744 10.23769 11603 ft 257 kts 338°
2026-05-05 16:59 43.69570 10.23759 12704 ft 275 kts 13°
2026-05-05 17:00 43.71272 10.25079 13808 ft 287 kts 36°
2026-05-05 17:00 43.72613 10.27180 14653 ft 303 kts 59°
2026-05-05 17:00 43.73313 10.30014 15165 ft 324 kts 88°
2026-05-05 17:00 43.73014 10.33133 15766 ft 333 kts 117°
2026-05-05 17:01 43.71748 10.35752 16639 ft 326 kts 143°
2026-05-05 17:01 43.69851 10.37343 17601 ft 317 kts 168°
2026-05-05 17:01 43.67704 10.37679 18552 ft 309 kts 191°
2026-05-05 17:01 43.65659 10.36866 19418 ft 307 kts 205°
2026-05-05 17:02 43.63663 10.35775 20302 ft 310 kts 205°
2026-05-05 17:02 43.61648 10.34660 21172 ft 314 kts 206°
2026-05-05 17:02 43.59609 10.33530 22037 ft 318 kts 206°
2026-05-05 17:02 43.57546 10.32391 22881 ft 322 kts 206°
2026-05-05 17:03 43.55451 10.31238 23694 ft 326 kts 206°
2026-05-05 17:03 43.53333 10.30076 24409 ft 330 kts 206°
2026-05-05 17:03 43.51191 10.28906 25142 ft 333 kts 206°
2026-05-05 17:03 43.49029 10.27731 25879 ft 335 kts 206°
2026-05-05 17:04 43.46849 10.26552 26630 ft 338 kts 207°
2026-05-05 17:04 43.44653 10.25360 27364 ft 341 kts 207°
2026-05-05 17:04 43.42441 10.24155 28092 ft 344 kts 207°
2026-05-05 17:04 43.40207 10.22936 28822 ft 347 kts 208°
2026-05-05 17:05 43.37955 10.21709 29531 ft 350 kts 208°
2026-05-05 17:05 43.35684 10.20477 30177 ft 353 kts 208°
2026-05-05 17:05 43.33392 10.19240 30796 ft 354 kts 208°
2026-05-05 17:05 43.31092 10.18000 31414 ft 356 kts 208°
2026-05-05 17:06 43.28785 10.16751 32014 ft 358 kts 208°
2026-05-05 17:06 43.26464 10.15493 32598 ft 360 kts 208°
2026-05-05 17:06 43.24130 10.14226 33165 ft 362 kts 208°
2026-05-05 17:06 43.21781 10.12954 33723 ft 364 kts 208°
2026-05-05 17:07 43.19416 10.11678 34219 ft 367 kts 208°
2026-05-05 17:07 43.16940 10.10658 34596 ft 380 kts 198°
2026-05-05 17:07 43.14249 10.10384 34951 ft 397 kts 186°
2026-05-05 17:07 43.11452 10.10979 35158 ft 420 kts 173°
2026-05-05 17:08 43.08678 10.12577 35284 ft 445 kts 159°
2026-05-05 17:08 43.05950 10.14678 35429 ft 454 kts 159°
2026-05-05 17:08 43.03179 10.16806 35712 ft 458 kts 159°
2026-05-05 17:08 43.00396 10.18935 36106 ft 459 kts 159°
2026-05-05 17:09 42.97609 10.21058 36513 ft 459 kts 159°
2026-05-05 17:09 42.94815 10.23177 36883 ft 460 kts 159°
2026-05-05 17:09 42.92012 10.25298 37290 ft 460 kts 159°
2026-05-05 17:09 42.89211 10.27416 37726 ft 460 kts 159°
2026-05-05 17:10 42.86450 10.29501 38157 ft 460 kts 159°
2026-05-05 17:10 42.83654 10.31611 38597 ft 459 kts 159°
2026-05-05 17:10 42.80859 10.33718 38886 ft 460 kts 159°
2026-05-05 17:10 42.78058 10.35826 38964 ft 460 kts 159°
2026-05-05 17:11 42.72633 10.40521 38981 ft 470 kts 147°
2026-05-05 17:11 42.68024 10.46973 38974 ft 477 kts 139°
2026-05-05 17:12 42.63516 10.53595 38982 ft 477 kts 139°
2026-05-05 17:12 42.58996 10.60198 38988 ft 479 kts 140°
2026-05-05 17:13 42.54449 10.66816 38983 ft 480 kts 139°
2026-05-05 17:13 42.49893 10.73436 38979 ft 480 kts 140°
2026-05-05 17:14 42.45339 10.80055 38985 ft 480 kts 140°
2026-05-05 17:14 42.40784 10.86667 38987 ft 480 kts 140°
2026-05-05 17:15 42.36219 10.93256 38994 ft 480 kts 140°
2026-05-05 17:15 42.31653 10.99837 38994 ft 480 kts 140°
2026-05-05 17:16 42.27087 11.06422 39006 ft 480 kts 140°
2026-05-05 17:16 42.22523 11.12993 39003 ft 480 kts 140°
2026-05-05 17:17 42.17950 11.19554 39003 ft 480 kts 140°
2026-05-05 17:17 42.13371 11.26090 39000 ft 479 kts 140°
2026-05-05 17:18 42.08791 11.32618 38999 ft 480 kts 140°
2026-05-05 17:18 42.04212 11.39158 38975 ft 480 kts 139°
2026-05-05 17:19 41.99621 11.45691 38990 ft 481 kts 140°
2026-05-05 17:19 41.95013 11.52207 38996 ft 481 kts 140°
2026-05-05 17:20 41.90400 11.58724 39001 ft 481 kts 140°
2026-05-05 17:20 41.85791 11.65240 39013 ft 482 kts 140°
2026-05-05 17:21 41.81958 11.70657 39008 ft 482 kts 139°
2026-05-05 17:22 41.74268 11.81459 39014 ft 482 kts 139°
2026-05-05 17:22 41.69623 11.87938 39021 ft 482 kts 140°
2026-05-05 17:23 41.64950 11.94368 39028 ft 482 kts 140°
2026-05-05 17:23 41.61024 11.99740 39027 ft 482 kts 140°
2026-05-05 17:24 41.56375 12.06120 39025 ft 482 kts 139°
2026-05-05 17:24 41.51668 12.12568 39022 ft 482 kts 139°
2026-05-05 17:25 41.46985 12.18960 39040 ft 481 kts 139°
2026-05-05 17:25 41.42335 12.25298 39049 ft 481 kts 139°
2026-05-05 17:26 41.37656 12.31665 39050 ft 481 kts 139°
2026-05-05 17:26 41.32978 12.38021 39057 ft 481 kts 140°
2026-05-05 17:27 41.28286 12.44354 39040 ft 480 kts 139°
2026-05-05 17:27 41.23598 12.50682 39051 ft 480 kts 139°
2026-05-05 17:28 41.18917 12.57004 39056 ft 480 kts 139°
2026-05-05 17:28 41.14238 12.63316 39060 ft 480 kts 139°
2026-05-05 17:29 41.09547 12.69610 39062 ft 479 kts 139°
2026-05-05 17:29 41.04857 12.75889 39051 ft 479 kts 139°
2026-05-05 17:30 41.00169 12.82155 39058 ft 479 kts 139°
2026-05-05 17:30 40.95475 12.88406 39064 ft 478 kts 139°
2026-05-05 17:31 40.90787 12.94652 39070 ft 478 kts 139°
2026-05-05 17:31 40.86097 13.00883 39071 ft 478 kts 139°
2026-05-05 17:32 40.81405 13.07106 39065 ft 478 kts 139°
2026-05-05 17:32 40.76711 13.13318 39067 ft 478 kts 139°
2026-05-05 17:33 40.72009 13.19523 39052 ft 478 kts 139°
2026-05-05 17:33 40.67302 13.25713 39058 ft 478 kts 139°
2026-05-05 17:34 40.62115 13.31067 39062 ft 473 kts 148°
2026-05-05 17:34 40.56836 13.36154 39055 ft 473 kts 148°
2026-05-05 17:35 40.51511 13.41252 39065 ft 474 kts 148°
2026-05-05 17:35 40.46184 13.46346 39063 ft 474 kts 148°
2026-05-05 17:36 40.41044 13.51243 39062 ft 474 kts 148°
2026-05-05 17:36 40.35710 13.56319 39062 ft 474 kts 148°
2026-05-05 17:37 40.30372 13.61398 39057 ft 474 kts 148°
2026-05-05 17:37 40.25031 13.66476 39064 ft 474 kts 148°
2026-05-05 17:38 40.19683 13.71535 39065 ft 474 kts 148°
2026-05-05 17:38 40.14328 13.76583 39069 ft 475 kts 148°
2026-05-05 17:39 40.08974 13.81633 39078 ft 475 kts 148°
2026-05-05 17:39 40.03616 13.86674 39068 ft 475 kts 147°
2026-05-05 17:40 39.98253 13.91713 39069 ft 475 kts 147°
2026-05-05 17:40 39.92875 13.96742 39067 ft 476 kts 148°
2026-05-05 17:41 39.87489 14.01776 39064 ft 477 kts 147°
2026-05-05 17:41 39.82097 14.06820 39070 ft 477 kts 147°
2026-05-05 17:42 39.76700 14.11854 39070 ft 477 kts 148°
2026-05-05 17:42 39.71341 14.16833 39074 ft 477 kts 148°
2026-05-05 17:43 39.65942 14.21842 39077 ft 477 kts 148°
2026-05-05 17:43 39.60539 14.26852 39065 ft 478 kts 147°
2026-05-05 17:44 39.55121 14.31861 39048 ft 479 kts 147°
2026-05-05 17:44 39.49692 14.36868 39052 ft 479 kts 147°
2026-05-05 17:45 39.44253 14.41871 39061 ft 480 kts 147°
2026-05-05 17:45 39.38807 14.46873 39064 ft 480 kts 147°
2026-05-05 17:46 39.33360 14.51870 39057 ft 480 kts 147°
2026-05-05 17:46 39.27911 14.56860 39064 ft 480 kts 147°
2026-05-05 17:47 39.22462 14.61840 39068 ft 480 kts 147°
2026-05-05 17:47 39.17005 14.66816 39076 ft 480 kts 147°
2026-05-05 17:48 39.11549 14.71783 39071 ft 480 kts 148°
2026-05-05 17:48 39.08817 14.74263 38841 ft 480 kts 148°
2026-05-05 17:48 39.06087 14.76737 38135 ft 481 kts 148°
2026-05-05 17:48 39.03346 14.79217 37240 ft 482 kts 148°
2026-05-05 17:49 39.00596 14.81706 36241 ft 485 kts 148°
2026-05-05 17:49 38.97826 14.84212 35208 ft 489 kts 148°
2026-05-05 17:49 38.95022 14.86744 34002 ft 496 kts 148°
2026-05-05 17:49 38.92203 14.89287 33154 ft 493 kts 148°
2026-05-05 17:50 38.89414 14.91808 32228 ft 489 kts 148°
2026-05-05 17:50 38.86630 14.94322 31184 ft 490 kts 148°
2026-05-05 17:50 38.83879 14.96804 30119 ft 490 kts 148°
2026-05-05 17:50 38.81086 14.99319 28791 ft 491 kts 148°
2026-05-05 17:51 38.78293 15.01831 27427 ft 491 kts 148°
2026-05-05 17:51 38.75492 15.04349 26107 ft 492 kts 147°
2026-05-05 17:51 38.72706 15.06851 24986 ft 486 kts 147°
2026-05-05 17:51 38.69955 15.09320 23966 ft 479 kts 147°
2026-05-05 17:52 38.67229 15.11762 22519 ft 479 kts 147°
2026-05-05 17:52 38.64512 15.14196 21347 ft 474 kts 147°
2026-05-05 17:52 38.61828 15.16595 20294 ft 467 kts 147°
2026-05-05 17:52 38.59184 15.18958 19300 ft 461 kts 147°
2026-05-05 17:53 38.56573 15.21287 18326 ft 455 kts 147°
2026-05-05 17:53 38.53993 15.23581 17261 ft 449 kts 148°
2026-05-05 17:53 38.51450 15.25844 16302 ft 442 kts 148°
2026-05-05 17:53 38.48946 15.28069 15424 ft 436 kts 148°
2026-05-05 17:54 38.46473 15.30264 14582 ft 430 kts 148°
2026-05-05 17:54 38.44026 15.32440 13781 ft 426 kts 148°
2026-05-05 17:54 38.41609 15.34586 12931 ft 421 kts 148°
2026-05-05 17:54 38.39222 15.36704 12084 ft 415 kts 148°
2026-05-05 17:55 38.36874 15.38786 11452 ft 404 kts 147°
2026-05-05 17:55 38.34639 15.40770 11332 ft 379 kts 148°
2026-05-05 17:55 38.32537 15.42633 11209 ft 357 kts 148°
2026-05-05 17:55 38.30552 15.44391 11084 ft 339 kts 148°
2026-05-05 17:56 38.28663 15.46062 10968 ft 323 kts 148°
2026-05-05 17:56 38.26857 15.47654 10830 ft 309 kts 148°
2026-05-05 17:56 38.25105 15.49197 10518 ft 304 kts 148°
2026-05-05 17:56 38.23376 15.50718 10154 ft 302 kts 148°
2026-05-05 17:57 38.21653 15.52229 9756 ft 300 kts 148°
2026-05-05 17:57 38.19947 15.53728 9274 ft 298 kts 148°
2026-05-05 17:57 38.18248 15.55223 8810 ft 296 kts 148°
2026-05-05 17:57 38.16586 15.56687 8388 ft 293 kts 147°
2026-05-05 17:58 38.14915 15.58156 7968 ft 291 kts 147°
2026-05-05 17:58 38.13259 15.59611 7542 ft 288 kts 147°
2026-05-05 17:58 38.11616 15.61054 7112 ft 286 kts 147°
2026-05-05 17:58 38.09985 15.62475 6786 ft 280 kts 149°
2026-05-05 17:59 38.08233 15.63292 6667 ft 262 kts 176°
2026-05-05 17:59 38.06500 15.63026 6555 ft 245 kts 202°
2026-05-05 17:59 38.05102 15.61935 6434 ft 231 kts 220°
2026-05-05 17:59 38.03874 15.60687 6308 ft 221 kts 220°
2026-05-05 18:00 38.02694 15.59491 6181 ft 213 kts 220°
2026-05-05 18:00 38.01558 15.58342 6051 ft 205 kts 220°
2026-05-05 18:00 38.00454 15.57227 5867 ft 202 kts 220°
2026-05-05 18:00 37.99358 15.56120 5629 ft 201 kts 220°
2026-05-05 18:01 37.98252 15.55055 5388 ft 200 kts 211°
2026-05-05 18:01 37.96943 15.54481 5147 ft 201 kts 187°
2026-05-05 18:01 37.95552 15.54363 4927 ft 200 kts 184°
2026-05-05 18:01 37.94165 15.54244 4716 ft 199 kts 184°
2026-05-05 18:02 37.92784 15.54120 4506 ft 199 kts 184°
2026-05-05 18:02 37.91411 15.54173 4288 ft 198 kts 163°
2026-05-05 18:02 37.90293 15.55123 4034 ft 195 kts 129°
2026-05-05 18:02 37.89821 15.56685 3766 ft 192 kts 94°
2026-05-05 18:03 37.89946 15.58351 3486 ft 189 kts 82°
2026-05-05 18:03 37.90423 15.59868 3226 ft 185 kts 55°
2026-05-05 18:03 37.91360 15.60932 3052 ft 179 kts 30°
2026-05-05 18:03 37.92499 15.61479 2910 ft 171 kts 18°
2026-05-05 18:04 37.93597 15.61942 2782 ft 160 kts 19°
2026-05-05 18:04 37.94597 15.62368 2725 ft 142 kts 19°
2026-05-05 18:04 37.95470 15.62739 2684 ft 131 kts 19°
2026-05-05 18:04 37.96319 15.63088 2454 ft 126 kts 18°
2026-05-05 18:05 37.97133 15.63464 2273 ft 123 kts 21°
2026-05-05 18:05 37.97941 15.63804 2060 ft 122 kts 17°
2026-05-05 18:05 37.98746 15.64143 1842 ft 121 kts 18°
2026-05-05 18:05 37.99551 15.64481 1643 ft 123 kts 17°
2026-05-05 18:06 38.00362 15.64816 1502 ft 122 kts 16°
2026-05-05 18:06 38.00635 15.64922 1480 ft 121 kts 16°
2026-05-05 18:06 38.01982 15.65472 1173 ft 123 kts 19°
2026-05-05 18:06 38.02795 15.65806 950 ft 122 kts 16°
2026-05-05 18:07 38.03612 15.66127 779 ft 123 kts 16°
2026-05-05 18:07 38.04449 15.66357 591 ft 124 kts
2026-05-05 18:07 38.05301 15.66244 392 ft 123 kts 341°
2026-05-05 18:07 38.06085 15.65838 204 ft 121 kts 329°
2026-05-05 18:08 38.06830 15.65350 37 ft 116 kts 331°
2026-05-05 18:08 38.07399 15.64977 53 ft 67 kts 333°
2026-05-05 18:08 38.07676 15.64797 59 ft 29 kts 334°
2026-05-05 18:08 38.07818 15.64705 66 ft 22 kts 333°
2026-05-05 18:09 38.07951 15.64618 75 ft 21 kts 332°
2026-05-05 18:09 38.08064 15.64545 84 ft 5 kts 333°
2026-05-05 18:09 38.08089 15.64509 86 ft 6 kts 307°
2026-05-05 18:09 38.08102 15.64518 87 ft 2 kts 85°
2026-05-05 18:10 38.08070 15.64544 84 ft 10 kts 154°
2026-05-05 18:10 38.07986 15.64595 73 ft 17 kts 150°
2026-05-05 18:10 38.07862 15.64677 64 ft 23 kts 153°
2026-05-05 18:10 38.07708 15.64777 59 ft 27 kts 153°
2026-05-05 18:11 38.07596 15.64850 60 ft 28 kts 153°
2026-05-05 18:11 38.07431 15.64957 53 ft 16 kts 152°
2026-05-05 18:11 38.07355 15.65008 51 ft 12 kts 152°
2026-05-05 18:11 38.07292 15.65057 47 ft 12 kts 129°
2026-05-05 18:12 38.07315 15.65164 50 ft 10 kts 63°
2026-05-05 18:12 38.07338 15.65221 48 ft 0 kts 62°
2026-05-05 18:13 38.07340 15.65226 50 ft 3 kts 62°
2026-05-05 18:13 38.07362 15.65237 50 ft 5 kts 338°
2026-05-05 18:13 38.07401 15.65216 48 ft 2 kts
2026-05-05 18:14 38.07417 15.65236 50 ft 5 kts 58°
2026-05-05 18:14 38.07423 15.65264 50 ft 2 kts 74°
2026-05-05 18:14 38.07424 15.65265 50 ft 0 kts 74°
2026-05-05 18:17 38.07410 15.65270 50 ft 0 kts 122°